Regional Weather Roundup
Issued by NWS

Home | Current Version | Previous Version | Text Only | Print | Product List | Glossary Off
Versions: 1 2 3 4 5 6 7 8 9 10 11 12 13 14 15 16 17 18 19 20 21 22 23 24 25 26 27 28 29 30 31 32 33 34 35 36 37 38 39 40 41 42 43 44 45 46 47 48 49 50

000
ASUS43 KIND 280159
RWRIN

WEATHER ROUNDUP FOR INDIANA
NATIONAL WEATHER SERVICE INDIANAPOLIS IN
1000 PM EDT TUE SEP 27 2016

NOTE: "FAIR" INDICATES FEW OR NO CLOUDS BELOW 12,000 FEET WITH NO
SIGNIFICANT WEATHER AND/OR OBSTRUCTIONS TO VISIBILITY.

* - STATION DOES NOT REPORT WEATHER SUCH AS PRECIPITATION OR FOG.

+ - STATION NOT QUALITY CONTROLLED BY THE NATIONAL WEATHER SERVICE.
    USE DATA WITH CAUTION...ESPECIALLY DEWPOINT AND RELATIVE
    HUMIDITY OBSERVATIONS.

INZ001>003-010>013-019-020-280300-
NORTHWEST INDIANA

CITY           SKY/WX    TMP DP  RH WIND       PRES   REMARKS
GARY /AIRPORT/ MOCLDY    52  45  76 SW3       29.78S

$$

LMZ046-743>745-280300-
SOUTHERN LAKE MICHIGAN

STATION/POSITION TIME  TEMP    WIND        PRES    WAVE
                       AIR SEA DIR/SP/G            HT
                 (UTC) (F)     (DEG/KT/KT) (MB)    (FT)
BURNS HARBOR     0104   66     300/ 10/ 18 1008.8R
MICHIGAN CITY    0100   66     250/ 18/ 20   N/A
5NW MICH CITY    0100   67 67  280/ 14/ 17   N/A     5

$$

INZ004-005-014>016-021>024-280300-
NORTH CENTRAL INDIANA

CITY           SKY/WX    TMP DP  RH WIND       PRES   REMARKS
GOSHEN         PTCLDY    53  43  68 S6        29.79S
SOUTH BEND     PTCLDY    54  44  69 N8        29.80R

$$

INZ006>009-017-018-025>027-280300-
NORTHEAST INDIANA

CITY           SKY/WX    TMP DP  RH WIND       PRES   REMARKS
ANGOLA *+        N/A     52  39  62 CALM      29.80R
FORT WAYNE     MOCLDY    56  38  50 NW5       29.81R
KENDALLVILLE + PTCLDY    52  44  72 S3        29.81R

$$

INZ028-029-035-036-043>045-051>053-280300-
WEST CENTRAL INDIANA

CITY           SKY/WX    TMP DP  RH WIND       PRES   REMARKS
CRAWFORDSVL +  CLEAR     50  47  89 S3        29.83R
GREENCASTLE +  PTCLDY    57  52  82 CALM      29.84S
LAFAYETTE      CLEAR     54  45  71 CALM      29.80S
TERRE HAUTE    PTCLDY    62  47  57 SW3       29.83S

$$

INZ030>032-037>040-046>048-054>057-064-065-280300-
CENTRAL INDIANA

CITY           SKY/WX    TMP DP  RH WIND       PRES   REMARKS
COLUMBUS       CLEAR     61  54  77 SW7       29.86S
INDIANAPOLIS   PTCLDY    60  48  64 SW8       29.83R
-EAGLE CREEK   CLEAR     63  46  54 SW5       29.82S
MT COMFORT *+  CLEAR     61  46  59 S6        29.84S
SHELBYVILLE    CLEAR     61  51  70 S7        29.84R

$$

INZ033-034-041-042-049-050-058-059-280300-
EAST CENTRAL INDIANA

CITY           SKY/WX    TMP DP  RH WIND       PRES   REMARKS
MUNCIE         CLEAR     63  42  46 SW5       29.82R

$$

INZ060-061-067>069-081>083-085>088-280300-
SOUTHWEST INDIANA

CITY           SKY/WX    TMP DP  RH WIND       PRES   REMARKS
EVANSVILLE     CLEAR     63  52  67 CALM      29.89R
HUNTINGBURG *+   N/A     63  46  55 S6        29.89R

$$

INZ062-063-066-070>080-084-089>092-280300-
SOUTH CENTRAL AND SOUTHEAST INDIANA

CITY           SKY/WX    TMP DP  RH WIND       PRES   REMARKS
BLOOMINGTON    CLEAR     56  51  84 SW3       29.86R
MADISON *+     CLEAR     59  46  63 S5        29.90S
SEYMOUR +      CLEAR     61  50  67 CALM      29.86S

$$





USA.gov is the U.S. government's official web portal to all federal, state and local government web resources and services.